• In Österreich
  • Länderverzeichnis
  • Für 7 Tage
  • Wassertemperatur
  • Satellitenkarten
  • Wetterkarte
  • News
  • Widgets
  • user-avatar
    Anmelden

    Stündliche Wetter Namibe

    Heute, 19 Juli, Donnerstag

    Zeit Temperatur Niederschläge Wind Luftdruck Luftfeuchtigkeit
    00:00 +22°C° 0 mm 3 m/S 761 mmHg 64%
    01:00 +22°C° 0 mm 3 m/S 761 mmHg 65%
    02:00 +22°C° 0 mm 3 m/S 761 mmHg 66%
    03:00 +21°C° 0 mm 3 m/S 761 mmHg 66%
    04:00 +21°C° 0 mm 2 m/S 761 mmHg 67%
    05:00 +21°C° 0 mm 3 m/S 761 mmHg 63%
    06:00 +22°C° 0 mm 3 m/S 761 mmHg 58%
    07:00 +22°C° 0 mm 3 m/S 761 mmHg 53%
    08:00 +26°C° 0 mm 3 m/S 761 mmHg 44%
    09:00 +28°C° 0 mm 3 m/S 761 mmHg 35%
    10:00 +31°C° 0 mm 3 m/S 761 mmHg 26%
    11:00 +34°C° 0 mm 3 m/S 761 mmHg 24%
    12:00 +35°C° 0 mm 4 m/S 760 mmHg 21%
    13:00 +37°C° 0 mm 4 m/S 760 mmHg 19%
    14:00 +36°C° 0 mm 5 m/S 759 mmHg 21%
    15:00 +36°C° 0 mm 5 m/S 759 mmHg 24%
    16:00 +35°C° 0 mm 6 m/S 758 mmHg 26%
    17:00 +33°C° 0 mm 5 m/S 759 mmHg 33%
    18:00 +29°C° 0 mm 5 m/S 759 mmHg 40%
    19:00 +27°C° 0 mm 4 m/S 759 mmHg 47%
    20:00 +26°C° 0 mm 4 m/S 760 mmHg 48%
    21:00 +26°C° 0 mm 3 m/S 760 mmHg 49%
    22:00 +26°C° 0 mm 3 m/S 761 mmHg 49%
    23:00 +25°C° 0 mm 3 m/S 761 mmHg 49%

    Morgen, 20 Juli, Freitag

    Zeit Temperatur Niederschläge Wind Luftdruck Luftfeuchtigkeit
    00:00 +25°C° 0 mm 3 m/S 761 mmHg 49%
    01:00 +25°C° 0 mm 3 m/S 761 mmHg 48%
    02:00 +25°C° 0 mm 3 m/S 760 mmHg 48%
    03:00 +25°C° 0 mm 3 m/S 760 mmHg 47%
    04:00 +25°C° 0 mm 3 m/S 759 mmHg 47%
    05:00 +25°C° 0 mm 3 m/S 759 mmHg 44%
    06:00 +25°C° 0 mm 3 m/S 760 mmHg 41%
    07:00 +25°C° 0 mm 4 m/S 760 mmHg 37%
    08:00 +28°C° 0 mm 4 m/S 760 mmHg 32%
    09:00 +30°C° 0 mm 4 m/S 760 mmHg 26%
    10:00 +34°C° 0 mm 4 m/S 760 mmHg 20%
    11:00 +35°C° 0 mm 4 m/S 759 mmHg 18%
    12:00 +37°C° 0 mm 4 m/S 759 mmHg 17%
    13:00 +38°C° 0 mm 4 m/S 758 mmHg 15%
    14:00 +38°C° 0 mm 4 m/S 758 mmHg 16%
    15:00 +37°C° 0 mm 5 m/S 757 mmHg 17%
    16:00 +37°C° 0 mm 5 m/S 756 mmHg 19%
    17:00 +34°C° 0 mm 5 m/S 757 mmHg 25%
    18:00 +32°C° 0 mm 4 m/S 757 mmHg 32%
    19:00 +28°C° 0 mm 3 m/S 758 mmHg 38%
    20:00 +28°C° 0 mm 2 m/S 758 mmHg 40%
    21:00 +27°C° 0 mm 2 m/S 759 mmHg 42%
    22:00 +27°C° 0 mm 2 m/S 759 mmHg 43%
    23:00 +26°C° 0 mm 2 m/S 759 mmHg 43%

    übermorgen, 21 Juli, Samstag

    Zeit Temperatur Niederschläge Wind Luftdruck Luftfeuchtigkeit
    00:00 +26°C° 0 mm 2 m/S 759 mmHg 43%
    01:00 +26°C° 0 mm 1 m/S 759 mmHg 43%
    02:00 +25°C° 0 mm 2 m/S 759 mmHg 43%
    03:00 +25°C° 0 mm 2 m/S 759 mmHg 43%
    04:00 +24°C° 0 mm 3 m/S 758 mmHg 43%
    05:00 +25°C° 0 mm 3 m/S 759 mmHg 41%
    06:00 +25°C° 0 mm 3 m/S 759 mmHg 38%
    07:00 +25°C° 0 mm 2 m/S 759 mmHg 36%
    08:00 +27°C° 0 mm 3 m/S 759 mmHg 31%
    09:00 +30°C° 0 mm 3 m/S 760 mmHg 25%
    10:00 +33°C° 0 mm 3 m/S 760 mmHg 20%
    11:00 +35°C° 0 mm 3 m/S 760 mmHg 19%
    12:00 +36°C° 0 mm 3 m/S 759 mmHg 18%
    13:00 +37°C° 0 mm 3 m/S 759 mmHg 17%
    14:00 +36°C° 0 mm 4 m/S 758 mmHg 20%
    15:00 +35°C° 0 mm 4 m/S 758 mmHg 23%
    16:00 +35°C° 0 mm 5 m/S 757 mmHg 25%
    17:00 +32°C° 0 mm 4 m/S 758 mmHg 32%
    18:00 +29°C° 0 mm 3 m/S 758 mmHg 38%
    19:00 +27°C° 0 mm 3 m/S 759 mmHg 44%
    20:00 +27°C° 0 mm 2 m/S 760 mmHg 45%
    21:00 +26°C° 0 mm 2 m/S 760 mmHg 46%
    22:00 +26°C° 0 mm 1 m/S 761 mmHg 47%
    23:00 +26°C° 0 mm 2 m/S 761 mmHg 46%

    22 Juli, Sonntag

    Zeit Temperatur Niederschläge Wind Luftdruck Luftfeuchtigkeit
    00:00 +25°C° 0 mm 2 m/S 760 mmHg 46%
    01:00 +25°C° 0 mm 2 m/S 760 mmHg 45%
    02:00 +25°C° 0 mm 2 m/S 760 mmHg 45%
    03:00 +25°C° 0 mm 3 m/S 760 mmHg 45%
    04:00 +24°C° 0 mm 3 m/S 759 mmHg 45%
    05:00 +24°C° 0 mm 3 m/S 760 mmHg 46%
    06:00 +24°C° 0 mm 3 m/S 760 mmHg 47%
    07:00 +24°C° 0 mm 3 m/S 760 mmHg 47%
    08:00 +26°C° 0 mm 3 m/S 761 mmHg 40%
    09:00 +28°C° 0 mm 3 m/S 761 mmHg 34%
    10:00 +31°C° 0 mm 3 m/S 761 mmHg 27%
    11:00 +33°C° 0 mm 3 m/S 760 mmHg 26%
    12:00 +34°C° 0 mm 4 m/S 760 mmHg 24%
    13:00 +35°C° 0 mm 4 m/S 759 mmHg 23%
    14:00 +34°C° 0 mm 4 m/S 759 mmHg 26%
    15:00 +34°C° 0 mm 4 m/S 759 mmHg 29%
    16:00 +33°C° 0 mm 4 m/S 758 mmHg 32%
    17:00 +30°C° 0 mm 4 m/S 759 mmHg 39%
    18:00 +28°C° 0 mm 3 m/S 760 mmHg 45%
    19:00 +26°C° 0 mm 2 m/S 760 mmHg 51%
    20:00 +25°C° 0 mm 2 m/S 761 mmHg 51%
    21:00 +25°C° 0 mm 2 m/S 761 mmHg 52%
    22:00 +25°C° 0 mm 1 m/S 762 mmHg 52%
    23:00 +25°C° 0 mm 2 m/S 761 mmHg 50%

    23 Juli, Montag

    Zeit Temperatur Niederschläge Wind Luftdruck Luftfeuchtigkeit
    00:00 +25°C° 0 mm 2 m/S 761 mmHg 48%
    01:00 +25°C° 0 mm 3 m/S 761 mmHg 46%
    02:00 +25°C° 0 mm 3 m/S 761 mmHg 46%
    03:00 +25°C° 0 mm 4 m/S 760 mmHg 46%
    04:00 +25°C° 0 mm 4 m/S 760 mmHg 45%
    05:00 +25°C° 0 mm 4 m/S 760 mmHg 45%
    06:00 +23°C° 0 mm 4 m/S 760 mmHg 44%
    07:00 +23°C° 0 mm 4 m/S 760 mmHg 44%
    08:00 +27°C° 0 mm 4 m/S 761 mmHg 36%
    09:00 +30°C° 0 mm 4 m/S 761 mmHg 28%
    10:00 +34°C° 0 mm 4 m/S 761 mmHg 20%
    11:00 +36°C° 0 mm 5 m/S 760 mmHg 19%
    12:00 +37°C° 0 mm 5 m/S 759 mmHg 17%
    13:00 +40°C° 0 mm 5 m/S 758 mmHg 16%
    14:00 +37°C° 0 mm 5 m/S 758 mmHg 19%
    15:00 +36°C° 0 mm 6 m/S 758 mmHg 23%
    16:00 +35°C° 0 mm 6 m/S 757 mmHg 27%
    17:00 +32°C° 0 mm 6 m/S 758 mmHg 33%
    18:00 +29°C° 0 mm 5 m/S 758 mmHg 39%
    19:00 +27°C° 0 mm 4 m/S 759 mmHg 46%
    20:00 +27°C° 0 mm 3 m/S 759 mmHg 46%
    21:00 +26°C° 0 mm 3 m/S 760 mmHg 46%
    22:00 +26°C° 0 mm 2 m/S 760 mmHg 46%
    23:00 +26°C° 0 mm 2 m/S 760 mmHg 46%

    24 Juli, Dienstag

    Zeit Temperatur Niederschläge Wind Luftdruck Luftfeuchtigkeit
    00:00 +26°C° 0 mm 2 m/S 760 mmHg 46%
    01:00 +25°C° 0 mm 2 m/S 759 mmHg 46%
    02:00 +25°C° 0 mm 2 m/S 759 mmHg 45%
    03:00 +25°C° 0 mm 3 m/S 759 mmHg 43%
    04:00 +25°C° 0 mm 3 m/S 758 mmHg 41%
    05:00 +26°C° 0 mm 3 m/S 759 mmHg 36%
    06:00 +26°C° 0 mm 3 m/S 759 mmHg 32%
    07:00 +26°C° 0 mm 3 m/S 759 mmHg 27%
    08:00 +29°C° 0 mm 3 m/S 759 mmHg 23%
    09:00 +33°C° 0 mm 3 m/S 760 mmHg 19%
    10:00 +35°C° 0 mm 3 m/S 760 mmHg 16%
    11:00 +36°C° 0 mm 3 m/S 759 mmHg 15%
    12:00 +38°C° 0 mm 3 m/S 759 mmHg 15%
    13:00 +39°C° 0 mm 3 m/S 758 mmHg 15%
    14:00 +37°C° 0 mm 4 m/S 758 mmHg 18%
    15:00 +36°C° 0 mm 4 m/S 757 mmHg 22%
    16:00 +35°C° 0 mm 5 m/S 757 mmHg 26%
    17:00 +32°C° 0 mm 4 m/S 757 mmHg 33%
    18:00 +29°C° 0 mm 3 m/S 758 mmHg 40%
    19:00 +27°C° 0 mm 2 m/S 759 mmHg 47%
    20:00 +27°C° 0 mm 2 m/S 759 mmHg 48%
    21:00 +26°C° 0 mm 1 m/S 760 mmHg 49%
    22:00 +26°C° 0 mm 1 m/S 760 mmHg 50%
    23:00 +25°C° 0 mm 1 m/S 760 mmHg 50%
    Mehr zeigen